Wind_Speed
72 70 66 62 61 62 63 63 66 68 71 70 66 66 64 62 60 54 51 50 50 50 47 44 40 37 36 40 42 42 42 45 48 45 41 45 48 46 46 47 47 48 46 44 43 42 38 39 46 44 33 25 27 28 25 26 28 27 25 27 30 25 20 16 21 32 39 36 33 34 36 36 39 40 41 44 46 48 49 49 49 48 46 45 45 45
72 67 61 60 62 65 65 66 68 70 71 69 67 68 65 64 62 54 49 51 53 51 48 44 40 36 36 38 39 39 42 45 46 47 46 48 50 48 46 45 45 46 43 40 38 38 40 42 43 41 31 25 26 25 23 26 28 28 29 32 33 29 23 18 22 30 36 36 35 37 39 40 43 45 46 49 50 50 49 50 49 47 46 45 46 47
69 62 59 63 65 67 67 67 69 69 68 67 68 69 67 69 64 53 51 53 54 51 47 45 42 37 36 37 37 37 39 43 46 49 49 47 48 50 49 46 44 42 41 40 37 37 40 40 39 37 31 29 31 28 26 26 27 28 31 31 32 30 26 23 23 26 30 35 38 40 43 46 50 52 52 53 51 50 51 50 48 48 47 48 49 49
65 61 62 65 66 68 67 67 69 67 66 67 69 70 71 71 62 54 54 56 55 52 48 47 42 37 35 33 34 35 37 41 46 48 47 47 48 50 49 48 46 42 40 40 39 39 40 39 38 38 32 32 35 33 30 30 31 31 30 28 27 25 26 27 27 31 36 42 45 46 49 54 57 57 55 54 52 52 51 50 49 49 50 51 51 51
65 64 65 66 67 67 66 68 68 65 65 68 70 71 73 70 61 58 59 59 58 54 49 47 43 40 38 36 38 40 40 41 42 42 44 47 50 49 48 48 47 45 42 40 41 41 41 41 40 40 35 33 35 36 35 34 33 32 28 25 22 21 26 33 37 41 45 50 52 52 55 58 58 56 55 55 54 53 51 49 50 52 53 53 52 52
69 69 67 66 66 66 67 69 65 62 65 69 70 72 74 70 65 63 62 60 58 54 51 49 46 44 42 42 45 44 41 39 39 39 41 45 48 47 46 46 46 46 44 42 42 43 43 44 43 43 42 39 38 39 37 33 30 29 28 26 25 27 31 35 39 44 47 51 53 54 56 57 56 56 57 57 56 53 51 51 53 54 54 53 52 52
71 71 69 68 67 66 67 65 62 62 67 70 71 73 74 70 65 63 61 60 58 55 54 52 50 49 45 44 46 45 42 40 41 43 43 45 46 44 44 44 44 45 45 43 44 45 46 46 46 46 46 44 43 42 39 32 27 26 27 29 32 36 39 40 43 46 48 51 54 57 59 60 60 60 59 57 54 52 52 54 54 54 54 53 52 51
71 72 72 69 65 65 65 63 63 65 68 70 70 72 71 66 62 61 59 60 60 58 58 54 52 51 47 46 46 45 44 42 43 44 44 44 45 45 44 43 44 44 44 43 45 47 48 49 48 48 46 45 46 45 42 36 27 26 29 33 38 43 47 50 51 53 55 58 62 64 66 65 62 59 56 54 52 53 54 55 54 53 53 52 52 52
73 74 70 65 62 64 65 66 66 66 68 70 70 69 67 63 62 63 62 62 61 61 59 56 55 53 49 48 46 43 44 45 45 44 44 45 46 47 45 44 44 44 42 43 45 49 51 51 50 50 48 47 48 48 46 39 31 32 36 37 41 46 50 53 55 58 61 64 65 66 66 62 58 55 53 52 53 54 54 54 53 52 52 52 53 55
77 73 67 64 64 66 67 68 66 66 70 70 66 65 64 61 64 66 65 64 64 64 61 58 57 54 51 47 44 43 44 45 47 49 50 49 48 49 48 47 46 44 42 43 45 50 53 53 52 52 50 49 49 48 46 41 36 40 43 43 45 49 52 56 58 61 61 61 61 61 60 57 54 53 52 53 53 53 52 52 52 53 54 55 57 60
74 68 66 67 67 67 68 68 66 68 72 66 61 63 62 62 66 66 65 65 67 65 61 59 57 56 54 50 47 48 47 45 47 51 53 50 49 49 49 49 48 46 44 43 46 49 52 54 55 55 53 52 51 48 47 45 41 43 45 45 46 48 51 54 56 57 57 56 56 56 55 53 52 51 51 51 51 51 52 53 54 55 58 60 61 64
69 67 69 69 69 68 67 67 66 69 69 60 59 63 63 64 66 65 66 68 66 63 60 59 57 57 57 52 48 48 47 46 46 48 50 49 48 48 48 49 49 47 46 45 47 49 52 54 57 59 57 56 55 52 51 51 49 49 49 48 47 48 49 51 51 52 52 52 53 53 52 51 50 50 50 51 51 53 55 56 58 60 62 64 66 68
68 69 70 70 69 66 66 66 66 69 65 57 61 65 63 64 65 64 67 66 62 60 59 60 59 58 57 53 49 47 47 48 49 49 51 49 48 49 50 51 50 49 48 47 48 50 52 55 58 62 62 59 59 58 58 59 57 54 54 54 52 50 49 48 48 49 49 51 52 52 52 51 51 52 53 54 55 57 59 60 63 65 67 69 71 72
69 72 73 71 67 65 65 62 63 65 59 56 62 63 61 62 61 61 62 61 60 59 60 62 61 58 57 56 53 51 51 53 54 55 55 49 47 50 53 53 52 51 51 50 50 52 54 56 59 63 64 63 62 62 63 64 61 58 58 59 57 54 52 49 48 49 50 51 52 52 53 53 54 55 56 57 59 61 63 65 67 69 71 72 73 73
70 72 71 68 64 62 59 58 62 63 56 56 62 61 60 60 57 57 59 59 59 60 62 63 60 57 58 56 55 54 55 55 56 57 56 49 46 50 54 54 54 54 53 52 52 53 55 57 61 64 65 64 63 64 65 65 64 62 62 62 61 60 59 57 55 54 55 55 55 56 57 58 58 59 60 62 64 66 68 69 71 72 73 73 73 74
70 72 68 65 62 59 57 61 65 62 56 59 63 60 58 57 55 58 59 58 59 62 63 61 58 58 57 54 54 54 54 55 56 57 57 54 51 52 53 52 54 56 55 55 54 55 56 59 62 65 66 66 65 66 67 67 67 66 65 65 64 63 63 62 61 61 60 59 59 61 61 62 63 64 66 68 69 71 72 73 73 73 73 73 74 73
72 72 67 64 62 60 61 64 64 59 57 61 62 57 55 55 56 57 56 55 58 61 60 57 56 57 55 53 53 53 52 53 55 55 56 57 57 57 55 54 56 57 57 57 56 56 57 60 63 66 67 68 68 68 69 69 70 70 69 68 68 67 66 66 64 64 64 63 63 64 65 67 68 69 71 72 73 73 74 73 73 73 73 73 73 72
74 70 65 65 63 61 62 63 61 59 59 60 58 55 55 56 56 56 55 54 56 57 54 53 55 55 54 53 51 52 53 53 54 56 57 58 58 58 58 58 58 58 59 59 57 57 58 60 63 65 67 69 70 70 70 70 71 71 71 70 70 69 68 68 67 66 66 66 66 67 68 69 70 71 72 72 72 72 72 72 72 72 72 72 71 71
73 67 64 64 61 60 62 61 60 58 58 58 57 55 56 55 54 53 52 50 52 52 49 50 54 54 54 53 50 51 53 53 54 56 58 59 59 58 59 59 59 59 60 60 59 59 59 61 62 64 66 69 70 71 71 70 70 70 71 70 69 69 68 68 68 68 68 68 68 69 69 70 70 70 70 70 71 71 71 71 71 71 71 70 70 69
70 64 63 62 60 62 62 59 57 57 57 57 56 55 53 51 49 48 46 46 48 48 47 50 53 52 53 52 51 51 51 52 54 54 56 59 59 58 58 59 60 60 60 60 61 60 60 61 62 63 65 67 69 71 71 71 70 70 70 69 69 69 68 69 69 69 69 69 69 69 69 69 69 69 70 70 70 71 71 71 70 70 70 69 69 68
66 62 63 62 61 62 58 54 55 58 58 56 52 51 49 47 46 45 45 47 48 47 48 51 51 51 52 50 49 51 50 51 53 54 55 56 56 56 57 58 58 59 59 59 60 60 60 60 61 63 64 66 68 70 70 71 70 70 70 69 69 69 70 70 70 70 70 70 70 70 69 69 70 70 70 70 71 70 70 70 69 69 69 69 68 67
62 60 61 61 60 59 55 53 56 58 58 54 52 52 50 47 47 46 45 45 44 45 47 47 47 49 50 47 47 51 51 51 52 53 54 54 53 54 56 57 58 58 59 59 59 60 60 61 61 62 64 65 67 68 69 69 70 70 70 70 70 70 70 71 71 71 71 70 70 70 70 70 70 70 70 69 69 69 68 68 68 68 68 67 67 66
61 60 61 60 59 57 55 57 58 59 56 53 54 56 52 50 48 44 43 43 43 44 44 43 45 46 44 43 44 46 48 50 50 50 53 54 54 55 56 57 57 58 59 59 59 59 59 60 61 62 63 65 66 67 67 68 68 69 70 70 70 70 70 71 71 70 70 69 69 68 68 68 68 68 67 67 67 67 67 67 67 67 67 66 66 65
60 60 61 60 58 57 58 59 59 58 55 53 55 55 51 50 48 45 45 47 47 46 46 45 45 44 43 43 43 43 45 48 48 47 50 52 53 55 58 57 57 58 59 59 59 59 60 61 61 62 63 64 65 65 65 66 67 67 68 68 69 69 69 69 68 68 67 67 66 66 66 66 65 65 65 65 65 66 66 66 66 66 66 65 64 63
60 62 62 59 57 57 56 56 56 55 52 52 54 52 50 51 51 49 50 51 49 47 47 47 46 45 45 46 48 48 49 49 48 47 47 50 53 56 57 56 56 58 58 59 59 60 61 61 61 62 62 63 63 63 63 63 64 64 65 65 65 65 66 66 65 65 64 64 64 64 64 64 63 63 64 64 65 66 66 66 66 65 65 64 63 62
62 62 60 57 56 55 52 50 52 51 50 51 52 51 51 53 53 51 51 50 48 47 47 46 46 48 48 48 49 50 50 50 49 48 48 51 55 56 56 55 55 57 58 58 59 60 61 61 61 61 62 63 63 62 62 61 61 62 62 62 62 63 63 63 63 62 63 63 63 63 63 63 63 63 64 65 65 65 65 65 65 64 64 63 62 62
62 59 57 56 55 54 51 51 51 50 49 50 51 51 52 53 54 53 52 50 48 47 48 47 49 50 49 48 49 49 48 48 49 51 53 55 56 56 55 54 54 56 57 58 59 60 60 60 61 61 61 62 62 61 61 60 60 60 60 60 61 61 61 61 61 61 62 62 62 62 62 62 63 63 64 64 65 65 65 65 64 64 64 63 62 62
59 56 56 55 55 54 53 54 55 52 51 51 50 50 51 51 52 51 52 53 51 50 51 52 53 52 50 50 51 51 51 50 50 53 55 56 57 56 54 54 54 56 57 58 59 59 60 61 61 61 62 62 62 61 61 60 60 60 60 60 60 60 60 60 60 61 61 62 62 61 62 62 63 63 64 64 64 64 65 65 65 64 64 64 63 63
56 56 55 55 54 52 53 55 54 51 50 51 50 51 51 51 51 51 52 54 53 52 54 55 55 55 54 54 52 52 53 53 53 55 56 56 56 56 55 55 55 56 57 57 58 59 60 61 61 62 62 62 62 62 61 61 61 61 60 60 60 60 60 60 60 61 61 61 62 62 62 63 63 64 64 64 64 65 65 65 65 65 65 64 64 64
56 56 55 55 54 52 53 53 50 48 49 50 50 51 51 52 52 52 53 54 53 53 56 57 56 56 57 57 56 56 55 53 54 56 57 57 57 57 57 57 57 57 57 57 58 59 60 61 62 62 62 63 63 62 62 61 61 61 60 60 60 60 60 60 60 61 61 62 62 63 63 63 64 64 64 64 64 65 66 66 65 65 65 65 66 67
55 55 53 53 52 51 52 52 51 52 52 51 50 49 50 50 51 51 52 52 51 52 53 54 54 55 57 58 59 59 57 56 57 59 60 60 60 59 59 58 58 58 58 58 59 59 60 61 62 62 62 63 62 62 62 61 61 60 60 60 59 59 59 59 60 61 62 63 63 64 64 64 64 64 64 64 64 65 66 66 66 66 66 66 67 68
54 52 51 51 50 50 51 52 52 52 50 49 48 48 48 48 48 49 49 48 49 50 50 50 50 52 54 56 57 57 58 60 63 63 63 63 62 61 61 60 59 58 58 58 59 59 60 61 61 62 62 62 62 62 61 61 60 59 59 59 58 58 59 59 61 62 63 63 64 64 64 64 64 64 64 64 64 65 66 66 67 67 67 67 69 70
54 52 51 51 50 51 52 52 52 51 49 48 47 46 47 47 47 48 47 47 48 49 47 46 49 52 53 54 55 55 57 60 63 64 65 64 63 62 62 61 60 59 59 59 59 59 60 60 61 60 61 61 61 62 61 60 60 59 58 58 58 58 59 60 61 63 63 63 64 64 64 64 63 63 63 63 63 65 66 67 67 68 68 69 70 71
53 53 54 53 52 52 52 53 53 51 49 48 46 46 46 46 46 47 47 48 49 49 48 48 51 53 53 53 54 55 56 59 61 62 63 62 62 63 62 61 61 60 60 60 59 59 59 59 59 59 60 60 61 61 60 59 59 58 58 58 58 58 59 60 62 63 63 63 63 64 64 63 63 63 63 63 64 65 67 68 68 69 69 70 71 72
52 54 54 52 52 53 53 54 54 51 49 47 46 45 45 45 45 46 47 48 49 50 51 51 52 54 53 53 54 55 55 56 57 58 59 60 61 61 61 60 60 60 60 60 59 59 59 59 59 58 59 59 59 59 59 58 57 57 57 57 57 57 58 59 61 62 62 62 62 63 63 63 63 63 63 64 65 66 67 68 69 69 70 71 72 73
51 52 51 50 51 51 51 52 52 50 49 48 47 46 45 45 46 46 47 47 48 50 51 51 53 55 55 55 56 55 53 53 54 56 58 59 60 60 60 59 60 60 60 59 59 58 58 59 58 57 57 58 58 58 58 57 56 56 56 56 56 57 58 59 61 61 61 61 61 62 63 63 64 64 65 65 66 67 68 68 69 69 70 71 73 74
51 50 48 48 49 48 48 50 50 49 50 50 48 47 47 47 48 48 47 47 48 50 50 51 54 56 56 57 56 55 54 54 54 55 57 58 60 61 61 60 60 59 59 58 58 58 58 58 57 57 57 57 57 57 57 57 56 55 55 55 56 56 57 59 60 60 60 60 61 62 63 64 64 65 66 67 68 69 69 69 69 70 71 72 73 75
51 50 49 49 48 47 48 49 48 48 49 50 49 49 49 49 49 48 47 47 48 49 49 50 53 54 55 57 56 55 56 55 55 56 57 59 60 61 61 61 60 59 58 58 58 58 58 57 57 57 58 57 57 58 58 57 56 56 55 55 55 56 57 58 59 59 60 61 62 63 64 64 65 66 67 68 69 70 70 69 70 70 71 72 74 75
51 50 50 49 49 48 48 49 47 47 48 48 49 50 50 50 50 49 49 49 49 49 50 50 51 52 54 55 56 56 56 56 57 58 59 59 59 60 60 61 60 60 60 60 59 59 59 59 58 58 58 58 58 59 59 57 56 55 55 55 56 56 58 59 59 59 60 61 62 63 64 65 66 67 68 70 70 70 70 70 70 71 72 73 74 74
51 50 49 49 49 49 49 49 48 48 48 48 49 50 50 50 50 50 51 51 50 51 51 50 50 51 52 52 54 56 58 58 59 59 59 59 59 59 60 60 60 61 61 61 61 61 61 60 59 59 59 59 59 59 58 57 56 56 55 56 56 57 58 59 59 59 61 62 63 64 65 66 67 68 69 70 71 71 71 71 71 71 72 74 74 72
51 50 49 49 49 48 48 48 48 49 49 50 51 51 50 50 51 52 53 52 51 51 52 51 50 50 49 50 53 55 57 58 59 59 60 60 60 59 60 60 61 61 61 61 61 61 61 60 60 60 60 59 59 59 59 58 57 56 55 56 56 57 57 57 58 59 61 63 64 65 66 67 68 69 70 71 71 71 71 71 72 72 73 73 72 70
50 49 49 48 48 48 47 48 48 48 49 50 52 52 51 51 52 53 55 54 52 51 52 51 50 50 49 49 51 52 52 54 56 58 59 60 60 59 59 60 61 61 61 61 62 61 61 61 60 60 60 59 59 60 59 59 57 56 55 56 56 56 56 57 58 60 62 63 64 66 67 69 70 71 71 71 71 71 71 72 72 72 72 71 70 68
48 48 48 48 48 48 48 47 47 48 49 50 52 53 53 53 54 55 57 57 55 53 53 52 50 49 49 49 49 48 50 52 54 56 57 58 59 59 59 60 61 61 61 61 62 62 61 61 61 60 60 60 59 60 60 59 58 56 56 56 57 57 57 58 60 62 63 64 65 67 69 70 71 71 71 71 71 71 71 71 71 71 71 70 68 66
48 48 49 50 50 49 49 49 49 49 50 51 53 55 56 55 56 57 58 58 56 55 54 54 52 50 49 49 49 48 50 52 52 53 54 56 57 58 59 60 61 60 61 61 61 61 61 61 61 61 61 60 60 60 59 59 57 56 56 57 58 58 58 60 61 63 64 65 67 69 70 71 72 72 71 71 70 70 71 71 71 71 70 68 66 65
49 50 51 51 51 50 51 51 51 51 52 53 55 57 58 57 57 58 58 58 57 56 55 55 53 52 51 52 52 52 52 52 51 51 52 54 56 58 59 60 60 60 60 60 60 60 60 60 61 61 60 60 60 60 59 59 58 58 58 59 59 59 59 60 62 64 65 67 68 70 71 71 72 72 72 71 70 70 71 71 71 70 68 67 65 65
50 51 51 51 52 53 54 54 53 53 54 54 56 58 58 57 57 58 59 59 59 58 57 56 55 54 54 54 55 55 55 54 53 52 52 53 55 56 58 59 59 60 60 60 60 60 61 61 61 60 60 60 60 60 59 59 59 59 60 61 61 61 61 62 63 65 66 68 69 70 71 72 72 73 73 71 70 71 71 71 70 69 67 65 64 64
52 52 52 53 54 55 55 55 55 55 56 56 57 58 58 57 57 58 60 61 61 61 60 59 58 58 57 57 57 57 56 56 56 55 55 55 56 56 56 57 58 59 60 61 61 61 61 62 61 61 61 60 60 60 59 59 59 60 60 61 61 61 62 63 65 66 67 68 69 70 71 72 72 73 73 72 71 71 71 71 70 68 65 64 63 63
53 54 55 56 56 56 55 55 54 54 54 55 56 57 58 58 58 59 60 62 62 62 62 61 60 60 60 60 60 58 58 59 59 58 57 58 58 58 57 57 57 58 60 61 62 62 62 63 62 62 61 61 61 60 60 60 60 60 60 60 59 60 61 63 65 66 67 69 70 71 71 72 73 73 73 72 72 72 72 71 68 66 64 63 62 63
55 55 55 56 55 54 53 52 51 52 52 53 54 56 58 59 59 59 60 61 62 62 62 62 61 61 62 62 61 60 60 60 61 60 59 59 60 60 59 58 58 58 59 60 61 62 63 64 63 63 62 62 61 61 60 60 60 60 60 60 59 60 61 63 65 66 68 69 70 71 72 72 73 73 73 72 72 72 72 69 66 64 62 62 62 63
54 53 53 53 52 51 50 50 51 52 51 51 54 57 58 59 59 59 60 61 61 61 62 63 63 62 62 63 64 62 62 62 62 62 61 61 61 61 60 60 59 59 60 60 60 61 62 63 64 64 64 63 63 62 61 61 61 61 61 60 60 61 62 63 65 67 68 70 71 71 72 73 73 73 72 72 72 72 70 67 64 62 61 61 62 63
50 50 50 49 48 48 49 50 52 50 49 52 56 57 56 58 59 59 60 60 61 62 63 64 65 64 63 65 65 65 64 64 64 63 63 62 62 62 61 61 60 61 61 61 61 61 61 62 62 63 64 64 63 63 62 62 61 62 62 61 61 62 63 64 66 67 69 70 71 72 72 73 73 73 73 72 72 70 67 64 62 60 60 61 62 64
Wind_Direction
229 230 231 232 231 230 229 228 228 227 226 226 226 228 228 230 230 225 226 230 231 232 231 230 227 223 227 230 228 225 220 220 221 221 228 237 241 244 248 249 249 248 247 246 243 236 231 238 246 247 248 245 235 230 237 248 250 252 254 266 277 265 247 244 243 255 267 271 269 271 275 282 290 293 290 289 292 293 294 294 294 294 294 294 294 295
228 229 229 230 228 227 227 226 226 226 226 225 225 228 228 229 229 224 225 230 231 231 230 229 226 221 223 226 226 224 220 219 219 218 223 233 237 242 248 250 249 246 244 241 239 231 226 230 240 245 244 235 227 220 224 241 248 250 252 263 272 265 246 232 234 251 265 268 267 272 276 280 287 291 289 288 291 291 292 292 292 291 292 293 294 295
227 228 228 228 227 226 225 225 226 226 226 225 226 227 227 228 227 223 225 230 231 231 230 229 226 221 223 225 225 226 224 222 221 219 222 231 239 245 248 248 247 245 239 236 234 227 224 228 236 242 239 232 225 214 216 231 240 247 256 260 263 258 240 225 230 244 255 262 266 271 275 279 286 291 289 289 289 289 290 290 289 289 291 292 294 294
227 227 228 228 227 226 225 225 226 225 224 225 225 226 227 227 225 222 225 229 230 230 229 229 226 222 223 224 224 227 226 225 224 224 226 232 239 244 246 244 243 243 239 233 230 224 220 223 230 235 234 232 228 219 217 226 237 247 254 256 254 249 237 230 233 238 246 257 264 269 274 282 288 289 288 288 288 288 288 288 287 289 291 292 293 294
222 223 225 226 227 226 225 226 225 224 224 225 225 226 227 227 224 223 225 227 229 229 228 229 226 222 221 219 219 222 224 226 227 229 230 233 236 240 243 243 241 241 240 234 228 222 217 218 225 230 232 233 232 228 227 231 239 243 246 250 248 238 238 244 244 246 253 261 266 271 278 284 287 286 285 286 286 287 287 287 287 289 290 291 292 293
219 220 222 224 225 225 224 225 225 223 224 225 225 225 226 225 223 223 225 228 230 230 229 228 226 223 221 222 223 222 224 227 227 227 228 233 237 238 240 241 240 239 238 235 229 221 215 216 221 225 228 230 231 232 231 233 238 240 241 242 235 229 236 245 248 252 259 265 270 275 280 283 283 282 284 285 285 285 285 286 287 289 290 291 292 292
218 219 221 222 222 223 224 225 223 222 224 224 224 225 226 224 223 224 226 228 229 229 229 228 226 225 223 225 227 226 224 224 227 228 229 234 239 239 238 240 240 238 236 234 229 222 215 215 221 226 228 229 229 230 229 227 231 236 236 234 235 238 241 243 248 254 259 265 271 276 279 281 281 282 283 283 284 284 284 286 287 288 289 290 291 292
217 219 220 222 223 223 223 223 222 222 224 224 225 226 226 224 224 224 225 227 228 228 228 227 226 226 224 225 228 228 226 223 225 230 233 236 238 240 240 240 241 239 236 233 229 223 215 214 222 228 231 231 228 228 226 222 224 230 232 233 238 243 246 246 250 255 260 265 270 274 277 279 280 281 281 281 281 282 284 285 286 287 288 289 291 293
217 219 221 223 224 223 222 221 221 222 224 224 224 226 225 222 222 222 222 224 226 227 227 227 227 226 225 226 228 230 230 227 225 227 230 232 236 240 241 241 242 241 238 233 230 226 220 218 222 228 233 234 230 229 227 222 224 231 230 231 238 244 249 251 254 260 264 267 270 272 274 275 277 278 278 279 280 281 283 284 285 286 288 289 291 293
217 218 219 220 221 221 221 221 221 222 224 224 224 226 225 223 222 222 222 223 225 226 226 226 228 228 226 226 226 227 230 231 230 229 229 229 233 239 241 240 241 241 240 236 232 229 226 223 224 229 232 233 233 233 227 216 214 225 230 236 243 249 253 255 258 262 265 268 269 271 272 273 275 276 277 278 279 280 281 283 284 286 287 289 291 293
216 216 217 218 219 220 220 221 221 222 225 224 223 225 224 222 223 223 222 223 225 226 226 227 229 229 228 226 226 227 229 232 235 235 233 231 233 237 239 240 240 240 240 238 235 233 230 227 226 229 232 231 232 232 223 214 218 230 238 243 247 251 254 256 258 261 264 267 269 270 272 273 274 275 276 276 278 279 281 282 284 286 289 291 293 295
213 214 216 217 219 220 220 221 221 224 225 222 222 225 223 222 223 222 223 225 226 227 228 229 229 230 230 228 229 231 232 233 235 238 236 232 232 235 237 239 240 240 240 239 237 234 232 229 227 229 232 231 231 229 221 222 233 241 243 245 248 252 255 257 258 260 263 265 267 269 270 271 272 272 273 274 276 278 281 283 286 288 291 292 294 296
212 213 216 218 220 220 221 221 221 225 225 221 223 225 223 223 223 222 224 226 227 228 229 230 229 230 231 229 228 229 230 230 230 235 238 235 233 235 236 237 238 239 239 238 237 234 232 229 227 230 232 232 232 231 227 230 240 244 242 245 251 255 258 259 259 260 261 263 264 266 267 267 269 270 272 275 278 280 283 286 288 290 292 293 295 297
211 213 216 218 220 221 222 222 223 227 225 222 226 226 225 226 226 226 228 227 228 228 229 230 230 231 232 231 229 228 229 231 232 235 238 238 237 236 236 237 237 238 238 238 236 235 232 229 228 229 232 233 234 234 234 236 242 243 243 246 250 254 258 259 260 261 262 263 264 264 265 267 269 271 274 278 281 284 286 288 290 291 293 294 296 298
211 215 217 219 221 222 224 222 223 225 223 222 227 227 226 227 226 227 229 228 228 228 229 231 231 232 233 233 232 231 231 233 235 238 239 237 236 237 238 236 235 236 237 238 237 235 233 232 230 230 232 234 235 236 238 240 242 243 244 247 251 255 257 259 261 262 263 264 265 266 268 270 271 274 277 281 283 286 288 289 291 292 294 296 297 299
210 214 217 219 220 221 221 220 222 223 220 221 225 224 225 226 225 226 226 225 226 227 229 230 230 232 234 234 235 235 234 235 236 238 239 237 234 235 236 234 234 235 236 237 237 236 234 233 233 232 233 234 235 237 239 241 243 245 246 248 252 255 258 259 261 262 264 265 267 269 271 273 274 277 280 283 284 286 288 290 292 294 295 297 298 300
210 213 214 216 218 218 219 220 222 222 221 223 225 224 224 224 225 226 226 226 226 228 229 230 230 231 232 233 234 235 234 234 235 235 237 237 235 233 234 235 236 236 235 236 237 237 236 235 235 234 234 236 237 238 239 241 243 245 247 249 252 255 257 259 261 262 264 266 268 270 272 274 276 279 281 283 285 287 289 291 293 294 296 298 299 300
210 213 213 215 216 217 219 221 221 220 220 223 225 224 224 223 223 224 225 224 226 229 229 229 231 231 230 230 232 233 233 232 234 234 235 235 235 235 236 237 238 237 235 235 235 237 237 237 237 237 236 238 240 241 241 242 244 246 249 251 253 256 258 260 262 263 265 267 269 272 274 276 279 280 282 284 286 288 290 291 293 295 296 297 298 299
211 211 212 215 216 217 219 220 220 220 221 223 223 223 223 224 224 226 226 226 228 229 227 228 229 229 229 229 229 232 233 232 233 234 236 237 236 236 236 237 239 238 237 235 235 236 237 238 239 239 239 240 242 244 244 245 246 248 250 253 255 258 260 262 263 265 267 269 272 274 277 279 280 282 284 285 287 289 290 292 293 295 296 297 298 299
212 211 212 214 216 218 220 220 219 219 221 223 223 223 224 225 225 226 226 225 227 227 225 226 227 227 228 227 228 232 233 233 234 234 236 238 237 237 237 237 239 240 239 237 236 237 238 239 240 241 241 242 243 245 246 248 249 250 252 254 256 259 261 263 265 268 270 272 274 276 278 279 281 283 284 286 288 289 291 292 294 295 296 297 298 299
211 211 213 214 216 219 221 221 219 220 221 222 222 224 225 225 224 223 223 222 223 222 221 223 224 225 226 224 225 230 231 232 234 234 236 239 239 239 239 239 239 240 241 241 240 239 240 241 242 243 243 244 245 246 247 249 251 253 255 256 258 260 262 264 266 269 271 273 275 277 278 280 281 283 285 286 288 289 291 293 294 296 297 298 298 299
209 210 214 216 218 220 220 218 218 220 221 220 220 220 220 221 221 220 220 221 222 222 221 221 222 223 224 221 223 229 229 231 234 235 237 240 240 240 241 240 240 241 242 243 243 243 243 243 244 244 245 246 247 248 249 250 252 254 256 258 260 262 264 266 268 270 272 274 276 278 279 280 282 283 285 287 289 291 293 294 296 297 297 298 298 299
208 209 213 215 217 219 218 216 217 219 220 218 219 219 217 217 219 217 217 218 218 219 218 217 219 222 222 221 225 230 231 232 235 237 238 240 241 241 241 241 241 241 242 243 244 245 246 246 246 246 247 248 249 249 250 251 253 255 257 259 261 263 265 267 269 271 273 275 276 278 279 281 282 284 286 289 291 293 294 296 296 297 297 298 299 299
207 209 212 214 216 218 217 216 217 219 218 218 221 221 218 218 218 215 215 214 213 214 214 214 217 220 222 223 225 228 230 232 235 237 240 241 242 242 242 242 242 242 243 244 245 246 247 248 248 249 249 250 251 252 253 254 255 256 258 260 262 264 266 268 270 271 273 275 276 278 280 282 284 286 289 291 293 294 295 296 297 297 298 299 300 300
207 209 212 214 216 219 219 219 220 221 220 220 223 223 220 220 220 216 216 216 214 214 215 216 218 219 222 226 227 228 230 233 235 238 241 243 244 244 243 243 243 244 244 245 246 247 248 249 250 251 252 253 254 254 255 256 257 259 260 262 264 265 267 269 270 272 274 275 277 279 281 283 286 288 290 292 294 295 296 296 297 298 299 300 300 300
209 211 213 214 216 219 220 221 223 223 222 223 224 223 220 220 221 220 221 220 218 219 220 220 221 223 223 226 231 233 234 235 237 238 240 242 245 245 244 244 244 245 245 246 247 248 249 251 252 253 254 255 256 256 257 258 259 260 262 263 265 266 268 270 272 274 276 277 279 281 283 285 287 290 291 293 294 295 296 297 298 299 299 300 300 300
210 211 213 214 216 217 215 216 219 220 221 223 224 224 222 222 222 222 223 223 221 224 226 224 226 227 226 228 233 235 237 238 239 240 241 242 245 246 246 246 246 246 247 247 248 249 250 252 253 255 256 257 258 259 259 260 261 262 263 265 266 268 270 272 274 276 277 279 280 282 285 287 289 290 292 294 295 296 296 297 298 299 299 299 300 300
208 210 212 214 216 216 214 215 216 215 217 221 222 223 224 225 225 225 226 226 224 225 228 228 228 229 229 230 233 236 238 238 240 241 242 243 246 248 249 248 248 248 248 249 249 250 251 252 253 255 256 258 259 260 261 262 263 264 266 267 269 271 273 275 276 278 279 281 282 284 286 288 289 291 293 294 295 295 296 297 298 298 299 299 300 301
207 208 211 214 216 216 215 218 219 218 219 220 220 221 222 223 224 224 226 228 226 226 229 230 230 231 231 230 232 235 236 236 237 240 243 245 248 249 249 249 249 250 250 250 251 251 252 253 254 255 257 258 260 261 262 264 265 266 268 269 271 273 275 277 278 279 280 282 283 285 286 288 290 291 293 294 294 295 296 297 298 298 299 300 300 301
209 210 212 214 216 215 215 217 218 219 221 223 222 222 222 222 222 222 224 226 226 225 228 230 230 231 232 231 230 233 234 235 237 241 243 245 247 249 250 250 251 251 251 252 253 253 254 255 256 257 258 259 260 262 263 264 266 267 269 271 273 274 276 278 279 280 280 282 283 285 286 288 290 291 292 293 294 295 296 297 298 299 300 300 301 302
210 213 215 217 217 217 217 216 216 217 219 221 223 223 224 225 224 224 225 226 227 227 228 230 231 232 233 233 232 233 235 236 237 239 241 243 245 247 249 250 251 252 253 253 254 255 256 257 258 259 260 261 262 263 264 265 267 268 270 272 273 275 276 277 278 279 280 281 283 284 286 288 289 291 292 292 293 295 296 297 298 299 300 301 302 303
211 213 215 218 218 217 217 217 218 219 220 222 224 224 225 226 226 227 228 228 229 229 229 231 232 233 234 234 234 234 235 236 237 239 241 243 244 246 248 249 250 252 253 254 254 255 256 257 258 260 261 262 264 265 265 266 268 269 271 272 274 275 276 277 277 278 279 281 283 284 286 287 289 290 291 292 293 295 297 298 299 299 300 301 302 304
210 211 213 216 217 217 217 217 218 219 220 222 225 225 225 226 226 227 228 228 229 230 230 230 232 233 233 234 235 234 235 237 238 239 240 242 244 246 248 249 251 252 252 253 254 255 256 257 258 260 261 263 264 265 266 267 268 270 271 272 273 274 275 276 277 278 279 281 283 284 285 287 288 289 290 292 293 295 297 298 298 299 300 301 302 303
208 210 212 214 215 217 217 217 218 218 218 220 223 225 226 227 227 228 228 228 229 230 229 229 231 233 233 234 235 235 235 237 238 240 241 243 245 247 248 250 251 252 253 254 254 255 256 257 258 259 260 261 263 264 266 267 268 270 271 272 273 274 275 276 277 278 280 282 283 284 286 287 288 289 290 291 293 295 297 298 298 299 300 301 301 302
210 212 214 214 216 217 218 218 218 218 218 220 223 225 226 227 228 229 229 229 230 231 230 229 232 234 234 234 235 236 237 238 240 242 243 244 244 246 248 250 251 252 253 254 255 256 257 258 259 259 260 262 263 264 265 266 268 269 270 271 272 274 275 276 277 278 280 282 284 285 286 287 288 289 290 291 293 295 297 298 298 298 299 299 301 302
213 216 217 218 220 221 221 222 222 220 220 221 223 225 226 227 228 229 229 230 231 232 232 232 233 235 236 236 237 238 240 241 242 242 244 244 244 245 247 248 250 251 253 254 255 256 257 259 260 261 263 263 264 265 266 267 268 269 270 271 272 274 275 276 277 279 281 283 284 285 287 288 289 290 291 292 294 295 296 297 297 297 298 299 300 302
215 217 219 221 223 224 224 226 224 223 223 223 223 225 226 227 229 229 229 230 231 232 233 233 234 235 236 237 238 239 240 241 242 242 243 244 244 245 246 247 249 251 253 254 256 257 258 260 261 262 263 264 265 267 268 268 269 270 271 273 274 275 276 277 278 280 282 283 284 285 286 287 289 290 291 293 294 296 296 297 297 297 298 299 300 302
216 218 219 221 224 224 225 227 226 225 226 226 226 227 228 229 231 232 232 233 234 235 235 235 235 235 236 237 238 238 239 240 242 242 242 242 243 244 245 247 248 250 252 254 255 257 258 260 261 262 263 265 266 267 268 269 271 272 273 274 275 276 276 277 279 281 282 283 284 285 286 287 288 290 291 293 294 295 296 296 297 297 298 299 301 303
217 219 220 222 224 224 225 226 227 226 228 229 229 230 230 230 232 234 235 235 236 238 238 238 238 238 238 238 238 238 238 238 239 241 241 242 243 244 245 247 249 250 252 253 255 256 258 259 261 262 263 265 266 267 269 270 272 273 274 274 275 276 276 278 279 281 282 283 283 284 285 286 288 289 291 292 294 294 295 296 297 298 299 300 302 303
220 221 222 223 225 226 226 227 227 227 228 230 231 231 231 231 232 234 235 236 237 239 240 240 241 241 241 241 241 240 239 238 239 240 242 243 244 245 246 247 249 250 252 253 255 256 258 259 261 262 263 264 266 268 269 270 271 272 273 274 274 275 276 278 279 281 281 282 283 283 285 286 287 289 291 292 293 294 295 296 297 298 299 301 303 303
222 223 223 224 226 227 227 228 228 228 229 230 232 232 232 233 234 235 236 237 238 240 241 241 242 243 244 244 244 242 241 241 241 242 243 244 245 245 246 248 249 250 251 253 254 256 258 259 260 262 263 264 265 267 268 269 270 271 272 273 274 275 276 278 279 280 280 281 282 283 284 285 287 289 291 292 294 295 296 296 298 299 300 302 303 304
224 225 226 226 227 228 229 230 231 231 231 232 233 233 233 234 235 236 237 238 238 240 242 242 243 244 245 245 245 246 246 245 245 244 245 245 246 247 247 248 249 250 250 252 253 255 256 258 259 261 262 263 265 266 267 268 269 270 272 273 274 275 276 277 278 279 280 280 281 282 283 285 287 289 291 292 294 295 296 297 298 300 302 303 304 303
226 227 228 228 229 229 231 232 233 234 234 234 235 235 234 234 235 237 238 238 238 240 243 244 245 246 246 247 247 248 248 248 247 246 246 247 247 248 248 248 249 250 251 252 253 254 255 256 258 259 260 262 264 265 267 268 270 271 272 272 273 275 276 277 278 278 279 279 280 282 284 286 287 289 291 293 294 295 297 298 300 301 303 304 303 303
226 227 228 229 229 230 232 233 233 233 234 233 235 236 235 234 235 237 239 240 240 241 243 245 246 247 247 248 248 249 249 249 249 249 248 248 248 249 249 250 250 251 252 253 254 254 255 256 257 258 259 261 262 264 266 267 269 270 271 271 272 274 275 276 277 277 278 279 280 282 284 286 288 290 292 294 296 297 298 299 301 303 304 304 303 303
227 228 229 230 231 233 234 235 234 234 235 234 235 236 236 235 236 238 240 242 243 243 244 246 247 248 248 249 250 250 250 251 251 251 250 250 250 249 250 250 251 252 253 254 254 255 256 257 258 259 260 261 262 263 264 266 267 268 268 269 271 272 274 275 276 277 278 279 280 282 284 286 288 290 293 295 297 298 299 300 302 303 304 303 303 303
229 230 232 233 235 235 236 236 236 237 237 236 237 238 238 238 238 239 240 242 243 244 245 246 248 248 249 250 251 252 252 253 253 252 252 251 251 251 251 251 252 253 253 254 255 255 256 257 258 259 260 261 262 263 265 266 266 267 267 268 269 271 272 274 275 276 278 279 280 282 284 286 288 290 293 295 297 299 300 301 303 303 303 303 303 303
232 233 234 236 237 237 238 239 239 238 238 238 238 238 239 239 239 240 240 241 242 243 244 246 247 249 250 250 251 252 253 254 254 253 253 252 252 252 252 252 252 253 254 255 255 256 257 258 258 259 260 261 263 264 265 266 267 267 268 269 269 270 271 273 275 276 278 279 280 282 284 286 288 290 292 295 297 299 301 302 303 303 302 302 303 303
236 237 238 239 239 241 242 242 241 241 240 240 240 240 240 240 241 241 241 241 241 242 243 245 247 249 250 250 251 251 252 253 254 254 254 254 254 254 254 254 253 253 254 254 255 256 257 258 258 259 261 262 263 264 265 266 267 268 268 269 270 270 271 273 274 276 277 279 280 282 284 285 287 290 292 295 297 299 301 302 302 302 302 302 303 304
239 240 241 242 242 243 243 243 243 242 241 241 241 241 241 242 242 242 242 242 242 242 243 244 246 248 250 251 251 251 251 252 253 253 253 254 254 255 255 255 255 255 255 255 255 256 257 257 258 259 260 262 263 264 265 266 267 268 269 269 270 270 271 272 274 275 277 278 280 282 283 285 287 290 292 295 297 299 301 302 301 301 301 302 303 304
240 241 242 242 242 242 242 242 242 241 241 242 242 241 241 242 242 241 241 241 241 241 242 244 245 246 249 251 252 252 252 252 253 253 253 253 254 255 255 256 256 256 257 256 257 257 257 257 258 258 259 260 261 262 264 265 267 268 269 270 270 270 271 272 273 274 276 278 280 281 283 286 288 290 293 295 297 299 301 300 300 300 301 301 302 303
238 239 240 240 241 241 241 241 242 241 241 242 243 242 242 242 242 241 241 240 240 241 242 244 245 246 248 250 252 253 253 253 253 254 254 254 254 255 255 256 257 257 257 258 258 258 258 258 258 258 258 259 260 262 263 265 266 267 268 269 270 270 270 271 272 274 275 277 279 281 284 286 288 291 293 295 298 299 299 299 299 299 300 301 301 302
Height
10595 10600 10610 10622 10630 10634 10637 10640 10642 10642 10644 10651 10657 10660 10664 10667 10671 10680 10686 10688 10688 10690 10695 10700 10707 10712 10716 10718 10720 10726 10731 10735 10741 10746 10749 10747 10744 10742 10742 10743 10744 10745 10748 10750 10754 10760 10762 10758 10751 10753 10760 10762 10763 10765 10767 10766 10765 10765 10769 10771 10773 10775 10774 10772 10773 10769 10765 10764 10761 10757 10757 10757 10756 10756 10756 10755 10754 10753 10752 10751 10750 10750 10749 10748 10747 10745
10589 10600 10613 10618 10621 10622 10625 10629 10630 10633 10639 10648 10653 10654 10659 10662 10665 10678 10685 10682 10682 10687 10692 10698 10704 10710 10712 10713 10717 10722 10726 10731 10735 10738 10740 10739 10738 10737 10737 10739 10739 10741 10743 10746 10749 10753 10753 10750 10748 10750 10756 10758 10758 10760 10762 10761 10762 10763 10765 10768 10769 10771 10771 10770 10771 10769 10764 10760 10755 10752 10752 10751 10751 10751 10751 10750 10749 10748 10748 10747 10745 10745 10744 10743 10742 10741
10590 10603 10609 10608 10610 10612 10616 10621 10622 10628 10637 10644 10646 10647 10653 10653 10660 10677 10680 10676 10678 10684 10690 10695 10701 10708 10710 10711 10714 10717 10721 10725 10728 10729 10731 10733 10732 10731 10733 10735 10735 10736 10739 10742 10744 10746 10747 10747 10748 10749 10752 10752 10752 10755 10759 10759 10760 10761 10763 10765 10765 10766 10766 10767 10769 10769 10763 10754 10749 10747 10747 10746 10746 10746 10746 10745 10744 10744 10743 10742 10741 10740 10739 10739 10737 10736
10593 10601 10600 10599 10602 10605 10612 10615 10617 10625 10633 10637 10638 10641 10644 10647 10661 10675 10673 10671 10674 10680 10686 10691 10699 10707 10709 10710 10713 10714 10717 10719 10722 10724 10727 10729 10727 10727 10729 10730 10731 10732 10734 10737 10739 10741 10743 10744 10745 10746 10747 10747 10748 10752 10757 10757 10757 10759 10761 10762 10762 10762 10762 10763 10765 10764 10757 10749 10744 10744 10743 10742 10741 10741 10740 10740 10739 10739 10738 10737 10736 10735 10735 10733 10732 10731
10587 10589 10588 10591 10595 10601 10607 10608 10613 10624 10628 10629 10631 10634 10637 10646 10661 10667 10665 10666 10669 10675 10683 10688 10696 10703 10706 10708 10709 10710 10712 10714 10717 10720 10722 10723 10722 10723 10725 10725 10727 10729 10730 10733 10735 10738 10740 10739 10740 10743 10743 10743 10745 10748 10751 10753 10755 10756 10758 10759 10759 10759 10758 10758 10758 10756 10751 10744 10742 10741 10740 10739 10737 10736 10736 10735 10735 10734 10733 10732 10732 10730 10729 10728 10727 10726
10575 10577 10580 10585 10590 10596 10600 10602 10612 10621 10621 10621 10624 10627 10631 10643 10654 10658 10660 10663 10666 10673 10680 10684 10691 10695 10699 10701 10702 10706 10709 10711 10713 10715 10716 10716 10716 10719 10720 10720 10722 10724 10726 10729 10731 10733 10735 10735 10735 10738 10739 10739 10741 10743 10746 10749 10751 10753 10755 10755 10754 10754 10754 10752 10751 10750 10746 10740 10737 10737 10735 10734 10733 10732 10732 10731 10731 10730 10729 10728 10727 10726 10724 10723 10722 10720
10567 10571 10574 10578 10584 10590 10594 10600 10610 10613 10611 10613 10618 10621 10628 10640 10650 10655 10660 10660 10663 10670 10673 10678 10684 10688 10693 10695 10696 10701 10704 10707 10708 10709 10711 10711 10712 10714 10716 10717 10718 10720 10722 10725 10727 10728 10730 10731 10731 10732 10734 10736 10738 10740 10744 10746 10747 10749 10751 10751 10749 10748 10748 10747 10744 10743 10740 10735 10732 10731 10730 10730 10730 10729 10729 10728 10727 10726 10724 10723 10722 10721 10720 10718 10717 10715
10563 10565 10568 10574 10582 10587 10591 10598 10602 10604 10604 10607 10613 10618 10626 10640 10648 10653 10655 10654 10658 10663 10665 10672 10678 10682 10688 10689 10691 10696 10699 10703 10704 10705 10706 10706 10708 10710 10711 10713 10714 10716 10718 10721 10723 10724 10725 10726 10726 10728 10731 10734 10736 10738 10741 10744 10745 10745 10745 10745 10743 10741 10740 10740 10739 10737 10734 10731 10729 10728 10728 10728 10728 10727 10726 10725 10723 10721 10720 10719 10718 10717 10715 10713 10711 10709
10556 10558 10567 10575 10580 10583 10586 10590 10594 10598 10598 10601 10609 10615 10625 10638 10642 10644 10646 10647 10652 10655 10660 10667 10672 10678 10684 10685 10689 10693 10695 10698 10700 10701 10700 10701 10704 10705 10707 10710 10710 10712 10715 10717 10718 10719 10721 10722 10722 10723 10726 10729 10732 10734 10737 10741 10741 10738 10737 10737 10737 10735 10733 10734 10734 10732 10729 10728 10727 10726 10726 10726 10725 10724 10722 10721 10719 10718 10716 10715 10714 10712 10710 10708 10706 10704
10543 10555 10566 10571 10573 10576 10580 10583 10589 10593 10590 10596 10608 10614 10624 10634 10634 10636 10640 10642 10645 10648 10656 10663 10667 10675 10680 10682 10686 10688 10690 10692 10693 10694 10694 10698 10701 10702 10703 10705 10706 10708 10711 10713 10714 10715 10717 10719 10719 10719 10721 10724 10726 10729 10732 10734 10734 10731 10731 10732 10731 10730 10729 10729 10729 10727 10725 10725 10724 10723 10723 10722 10721 10719 10718 10716 10715 10714 10712 10711 10709 10707 10705 10703 10701 10699
10543 10557 10561 10562 10565 10569 10573 10579 10586 10586 10583 10597 10610 10612 10619 10625 10626 10630 10635 10636 10637 10644 10654 10659 10664 10670 10673 10677 10681 10682 10684 10686 10686 10687 10690 10695 10697 10698 10700 10700 10702 10705 10706 10709 10710 10711 10713 10714 10715 10715 10716 10719 10721 10724 10727 10728 10728 10728 10728 10728 10727 10726 10726 10726 10725 10723 10722 10721 10720 10719 10719 10718 10717 10715 10714 10712 10711 10709 10707 10706 10704 10702 10700 10698 10696 10694
10545 10552 10553 10555 10559 10564 10569 10575 10581 10578 10582 10601 10607 10604 10612 10617 10619 10626 10629 10629 10635 10645 10652 10655 10660 10664 10667 10674 10676 10676 10679 10680 10681 10682 10685 10690 10693 10694 10695 10695 10697 10700 10701 10703 10704 10706 10708 10710 10711 10711 10712 10714 10716 10719 10721 10722 10722 10724 10724 10723 10722 10723 10723 10723 10722 10720 10718 10717 10716 10716 10715 10714 10712 10710 10709 10708 10706 10705 10703 10702 10700 10697 10695 10693 10691 10688
10544 10545 10546 10549 10555 10561 10565 10571 10575 10574 10585 10601 10598 10598 10608 10611 10616 10622 10624 10630 10638 10644 10648 10650 10654 10657 10662 10669 10672 10672 10674 10674 10675 10677 10679 10684 10688 10689 10689 10690 10692 10694 10696 10697 10699 10701 10703 10705 10706 10706 10707 10710 10712 10714 10715 10716 10717 10718 10718 10718 10717 10718 10718 10718 10717 10715 10714 10713 10712 10711 10711 10709 10707 10705 10704 10703 10702 10700 10699 10697 10695 10692 10690 10687 10685 10682
10537 10536 10538 10544 10552 10559 10563 10571 10575 10575 10589 10598 10593 10598 10606 10609 10616 10622 10625 10632 10637 10640 10643 10643 10647 10653 10657 10662 10665 10667 10668 10668 10670 10672 10675 10679 10682 10683 10683 10684 10686 10688 10690 10691 10693 10695 10697 10699 10700 10701 10702 10704 10706 10708 10709 10710 10711 10712 10712 10712 10712 10713 10713 10712 10710 10709 10708 10707 10707 10706 10706 10705 10703 10701 10700 10698 10697 10695 10693 10691 10689 10687 10684 10682 10679 10676
10531 10532 10538 10546 10554 10559 10566 10573 10571 10574 10588 10592 10588 10595 10601 10606 10615 10619 10622 10628 10632 10634 10634 10636 10643 10649 10651 10656 10660 10661 10662 10664 10665 10667 10671 10675 10677 10675 10675 10678 10680 10682 10684 10685 10687 10689 10691 10693 10694 10695 10697 10699 10701 10701 10702 10703 10704 10705 10706 10706 10707 10707 10706 10705 10704 10703 10703 10702 10702 10701 10700 10699 10698 10697 10695 10693 10691 10689 10687 10685 10683 10681 10678 10675 10673 10670
10527 10529 10538 10546 10552 10558 10563 10564 10563 10571 10583 10582 10581 10589 10597 10604 10610 10611 10614 10621 10625 10625 10626 10632 10640 10642 10646 10652 10654 10654 10657 10659 10660 10662 10665 10669 10670 10668 10669 10672 10674 10676 10678 10680 10682 10683 10686 10687 10687 10689 10691 10693 10695 10695 10696 10697 10697 10699 10700 10700 10701 10700 10699 10699 10698 10697 10697 10696 10696 10695 10694 10693 10692 10691 10689 10687 10685 10683 10681 10679 10677 10674 10671 10669 10666 10663
10520 10524 10535 10541 10547 10553 10555 10556 10561 10571 10577 10575 10578 10588 10596 10600 10603 10605 10610 10617 10619 10619 10624 10631 10635 10637 10641 10646 10647 10649 10651 10653 10656 10658 10659 10660 10662 10663 10665 10667 10667 10670 10672 10675 10677 10678 10680 10681 10681 10684 10686 10688 10689 10689 10691 10691 10692 10693 10694 10694 10694 10694 10693 10693 10692 10692 10691 10691 10690 10689 10688 10687 10686 10685 10683 10681 10679 10677 10675 10672 10670 10668 10665 10663 10660 10657
10512 10522 10533 10536 10542 10547 10549 10553 10559 10566 10570 10572 10579 10587 10590 10592 10596 10601 10605 10611 10613 10616 10624 10629 10630 10633 10636 10638 10641 10643 10645 10648 10651 10652 10652 10653 10656 10658 10660 10661 10661 10664 10666 10669 10672 10673 10675 10676 10676 10679 10681 10682 10683 10684 10685 10686 10687 10688 10688 10689 10689 10688 10688 10687 10687 10686 10685 10685 10684 10683 10682 10681 10680 10678 10677 10675 10673 10671 10669 10666 10664 10662 10659 10657 10654 10651
10509 10521 10528 10532 10540 10544 10544 10549 10557 10563 10567 10571 10576 10580 10583 10588 10595 10599 10603 10609 10611 10615 10622 10624 10624 10627 10630 10634 10638 10637 10639 10642 10642 10644 10646 10647 10650 10652 10654 10655 10656 10658 10660 10663 10666 10668 10669 10670 10672 10674 10675 10676 10676 10677 10679 10680 10682 10683 10683 10684 10684 10683 10682 10682 10681 10680 10680 10679 10678 10678 10677 10675 10674 10672 10670 10669 10667 10665 10663 10660 10658 10655 10653 10650 10648 10645
10509 10520 10526 10530 10537 10537 10539 10548 10556 10561 10563 10567 10572 10577 10582 10589 10594 10597 10602 10606 10607 10611 10617 10617 10618 10622 10625 10630 10633 10632 10634 10635 10636 10640 10641 10640 10644 10647 10648 10650 10651 10652 10654 10658 10661 10663 10664 10665 10667 10668 10669 10670 10670 10671 10672 10674 10676 10677 10677 10678 10678 10678 10677 10676 10675 10675 10674 10673 10673 10672 10671 10669 10668 10666 10664 10663 10660 10658 10656 10654 10652 10649 10646 10644 10641 10638
10510 10520 10523 10527 10531 10533 10541 10551 10555 10556 10559 10565 10572 10577 10582 10587 10591 10594 10597 10599 10601 10606 10610 10610 10614 10618 10619 10625 10627 10626 10628 10631 10632 10634 10635 10636 10640 10642 10643 10645 10646 10647 10649 10652 10655 10657 10659 10660 10661 10662 10663 10664 10664 10665 10667 10668 10670 10671 10672 10673 10673 10672 10671 10670 10670 10669 10669 10668 10668 10667 10665 10664 10662 10660 10659 10657 10654 10652 10650 10647 10645 10642 10639 10637 10634 10632
10511 10518 10520 10524 10529 10534 10543 10548 10550 10551 10556 10564 10568 10571 10577 10581 10585 10589 10592 10596 10600 10603 10605 10608 10611 10612 10615 10621 10622 10620 10623 10626 10628 10630 10632 10634 10636 10637 10638 10639 10641 10643 10644 10646 10649 10651 10653 10654 10655 10656 10657 10657 10658 10659 10662 10664 10666 10666 10667 10667 10667 10667 10666 10665 10664 10664 10664 10663 10662 10661 10660 10658 10656 10654 10652 10650 10648 10645 10643 10640 10638 10635 10633 10630 10627 10625
10509 10514 10517 10522 10527 10533 10539 10542 10543 10547 10554 10560 10562 10565 10571 10575 10580 10586 10590 10594 10596 10598 10602 10605 10606 10608 10613 10618 10618 10617 10619 10621 10622 10625 10627 10629 10631 10632 10632 10633 10636 10638 10639 10641 10644 10645 10647 10648 10649 10650 10651 10651 10652 10654 10657 10660 10661 10661 10662 10662 10662 10662 10661 10659 10659 10659 10659 10659 10657 10656 10654 10652 10650 10648 10646 10644 10641 10639 10636 10633 10631 10628 10626 10623 10621 10618
10507 10511 10513 10518 10524 10528 10532 10536 10539 10544 10551 10556 10557 10562 10570 10573 10577 10582 10585 10586 10588 10592 10596 10598 10601 10606 10610 10613 10613 10614 10615 10615 10616 10619 10621 10623 10626 10625 10625 10628 10632 10633 10634 10636 10639 10640 10641 10641 10643 10644 10645 10646 10647 10650 10653 10655 10656 10657 10657 10657 10657 10657 10655 10654 10655 10655 10655 10653 10652 10650 10648 10646 10644 10642 10639 10637 10635 10632 10630 10627 10624 10622 10619 10617 10614 10611
10504 10505 10509 10516 10521 10524 10529 10535 10539 10544 10551 10554 10556 10561 10568 10571 10573 10577 10578 10581 10585 10588 10591 10595 10598 10602 10604 10605 10606 10607 10609 10610 10612 10615 10618 10619 10619 10619 10620 10624 10627 10628 10630 10632 10634 10635 10635 10636 10637 10639 10640 10641 10643 10645 10648 10650 10651 10651 10652 10652 10652 10651 10650 10650 10650 10650 10649 10647 10645 10644 10642 10640 10638 10636 10633 10631 10628 10626 10623 10620 10617 10615 10612 10610 10607 10605
10498 10502 10508 10515 10519 10524 10532 10537 10540 10545 10550 10551 10553 10559 10563 10566 10569 10573 10575 10579 10585 10587 10590 10593 10595 10596 10598 10599 10600 10602 10605 10608 10610 10611 10613 10613 10612 10613 10615 10618 10621 10623 10624 10626 10628 10629 10630 10631 10633 10634 10635 10636 10638 10640 10642 10644 10645 10646 10646 10647 10646 10645 10645 10645 10645 10644 10642 10640 10638 10637 10635 10634 10632 10630 10627 10625 10622 10619 10616 10613 10611 10608 10606 10604 10601 10598
10495 10503 10508 10513 10517 10522 10529 10532 10535 10541 10545 10547 10551 10555 10559 10562 10565 10569 10572 10577 10582 10585 10586 10590 10591 10591 10596 10598 10597 10599 10602 10604 10606 10606 10606 10606 10606 10607 10610 10613 10616 10617 10619 10621 10622 10624 10625 10626 10627 10628 10629 10630 10632 10634 10636 10638 10640 10640 10641 10641 10640 10640 10639 10639 10638 10637 10635 10633 10632 10630 10629 10627 10626 10623 10621 10619 10616 10613 10610 10607 10605 10602 10600 10598 10595 10593
10496 10502 10506 10510 10514 10519 10525 10526 10529 10535 10539 10542 10547 10550 10554 10558 10561 10566 10570 10572 10577 10580 10582 10583 10585 10587 10592 10594 10595 10596 10598 10600 10600 10599 10600 10600 10601 10603 10606 10608 10610 10611 10613 10615 10617 10619 10620 10620 10621 10623 10624 10624 10626 10628 10630 10632 10633 10634 10635 10635 10634 10634 10633 10633 10631 10629 10628 10626 10625 10624 10623 10621 10620 10617 10615 10613 10610 10607 10604 10601 10599 10596 10594 10591 10589 10587
10495 10499 10503 10507 10511 10517 10521 10523 10527 10533 10536 10539 10542 10545 10549 10553 10557 10561 10564 10566 10571 10575 10576 10576 10580 10583 10586 10589 10591 10591 10591 10593 10594 10594 10596 10597 10597 10599 10600 10602 10603 10605 10607 10609 10611 10613 10613 10615 10616 10617 10618 10619 10620 10622 10624 10626 10627 10628 10629 10629 10629 10628 10627 10626 10624 10623 10621 10620 10619 10618 10617 10616 10614 10611 10609 10606 10603 10600 10597 10595 10593 10590 10588 10585 10583 10580
10494 10496 10500 10504 10508 10514 10517 10521 10527 10531 10533 10535 10538 10541 10544 10547 10551 10554 10557 10559 10565 10569 10569 10571 10576 10578 10579 10583 10585 10585 10586 10589 10591 10591 10592 10592 10592 10593 10594 10595 10597 10599 10602 10604 10605 10606 10608 10610 10610 10611 10613 10614 10615 10617 10619 10620 10621 10622 10623 10623 10623 10622 10621 10620 10618 10616 10615 10614 10613 10613 10611 10610 10608 10605 10603 10600 10597 10594 10591 10588 10587 10584 10582 10579 10576 10574
10491 10495 10500 10503 10506 10512 10515 10518 10522 10524 10527 10531 10535 10538 10541 10544 10548 10551 10553 10557 10561 10564 10565 10568 10572 10573 10574 10577 10579 10580 10584 10586 10585 10584 10585 10586 10587 10588 10588 10590 10592 10594 10596 10598 10599 10602 10603 10604 10605 10606 10607 10608 10610 10611 10613 10614 10615 10617 10617 10617 10617 10616 10615 10614 10612 10610 10609 10608 10608 10607 10605 10604 10602 10599 10596 10594 10591 10587 10584 10582 10580 10578 10576 10573 10570 10567
10488 10493 10498 10500 10504 10509 10512 10515 10517 10521 10526 10529 10532 10535 10538 10541 10545 10548 10551 10555 10557 10559 10562 10566 10568 10569 10569 10571 10572 10576 10579 10579 10577 10578 10580 10580 10581 10582 10583 10584 10587 10589 10591 10592 10594 10596 10598 10598 10599 10601 10602 10603 10605 10606 10607 10608 10610 10611 10612 10612 10611 10611 10609 10608 10606 10604 10603 10603 10602 10601 10599 10598 10596 10593 10590 10588 10585 10582 10579 10577 10574 10571 10569 10566 10563 10560
10485 10490 10494 10497 10501 10505 10507 10511 10514 10519 10523 10526 10529 10532 10535 10538 10541 10543 10547 10550 10552 10554 10559 10562 10563 10562 10562 10564 10567 10570 10572 10571 10571 10572 10573 10574 10576 10577 10578 10580 10582 10584 10585 10586 10588 10590 10591 10593 10594 10596 10597 10598 10599 10599 10601 10603 10604 10606 10606 10606 10606 10605 10604 10602 10600 10598 10598 10598 10596 10594 10592 10591 10589 10587 10585 10582 10579 10576 10573 10571 10568 10565 10562 10560 10557 10554
10481 10485 10488 10492 10496 10499 10503 10506 10510 10514 10519 10523 10526 10528 10531 10534 10537 10539 10542 10545 10547 10550 10553 10555 10554 10554 10557 10560 10561 10563 10564 10563 10564 10566 10569 10572 10573 10573 10574 10576 10577 10578 10579 10580 10582 10584 10585 10587 10589 10591 10592 10592 10593 10594 10595 10597 10599 10600 10600 10600 10600 10599 10598 10596 10594 10592 10592 10591 10589 10587 10585 10585 10583 10581 10579 10577 10574 10571 10568 10565 10562 10559 10556 10554 10551 10547
10480 10481 10484 10489 10493 10495 10498 10502 10506 10511 10517 10520 10522 10524 10527 10530 10532 10534 10536 10539 10542 10543 10545 10548 10549 10549 10552 10554 10554 10557 10559 10560 10562 10564 10566 10567 10568 10568 10570 10571 10571 10571 10572 10574 10576 10578 10579 10581 10583 10584 10585 10586 10587 10588 10589 10591 10593 10594 10594 10594 10593 10593 10592 10590 10587 10586 10586 10585 10583 10580 10578 10577 10576 10574 10572 10570 10568 10566 10563 10560 10557 10554 10551 10548 10544 10541
10478 10480 10484 10488 10490 10493 10498 10501 10505 10511 10514 10517 10519 10521 10524 10526 10527 10529 10532 10535 10537 10538 10540 10543 10544 10544 10547 10548 10549 10553 10557 10558 10560 10560 10560 10561 10562 10562 10564 10564 10564 10565 10566 10568 10571 10572 10574 10575 10577 10579 10580 10580 10581 10581 10583 10585 10586 10587 10588 10587 10587 10586 10585 10583 10581 10580 10580 10578 10576 10574 10572 10570 10569 10568 10566 10564 10561 10559 10557 10554 10552 10549 10545 10542 10538 10534
10475 10479 10483 10487 10489 10493 10497 10499 10503 10508 10511 10513 10515 10517 10519 10521 10522 10524 10527 10529 10531 10532 10535 10537 10537 10539 10542 10543 10546 10550 10551 10552 10554 10554 10554 10555 10555 10555 10556 10557 10558 10560 10562 10564 10566 10567 10568 10569 10571 10573 10573 10573 10574 10575 10576 10578 10579 10580 10581 10581 10581 10580 10579 10576 10575 10574 10573 10572 10570 10568 10566 10564 10562 10561 10559 10557 10555 10553 10551 10548 10546 10542 10539 10535 10531 10528
10473 10476 10480 10483 10486 10490 10493 10495 10500 10505 10507 10509 10512 10513 10515 10517 10518 10521 10524 10525 10526 10527 10530 10531 10532 10534 10537 10538 10541 10544 10545 10547 10549 10548 10548 10548 10548 10549 10551 10552 10554 10556 10557 10559 10560 10561 10563 10564 10565 10566 10566 10567 10568 10569 10569 10571 10573 10574 10574 10574 10574 10573 10572 10570 10569 10568 10567 10565 10564 10562 10560 10558 10557 10555 10553 10551 10549 10547 10545 10542 10539 10536 10532 10529 10525 10521
10470 10473 10476 10479 10482 10486 10489 10492 10497 10500 10502 10505 10508 10509 10511 10513 10515 10517 10519 10520 10521 10522 10524 10525 10527 10530 10531 10533 10535 10537 10539 10541 10541 10540 10541 10543 10544 10545 10546 10548 10550 10551 10552 10553 10555 10556 10557 10558 10559 10560 10561 10562 10562 10562 10564 10565 10566 10567 10567 10567 10567 10566 10565 10564 10563 10562 10561 10559 10558 10556 10554 10553 10551 10549 10547 10545 10543 10541 10538 10535 10532 10529 10525 10522 10518 10513
10467 10470 10474 10477 10480 10482 10485 10489 10492 10495 10498 10500 10502 10504 10506 10509 10512 10513 10513 10515 10517 10517 10518 10521 10523 10524 10526 10529 10530 10531 10532 10533 10533 10535 10537 10538 10540 10541 10542 10544 10545 10546 10547 10549 10550 10550 10552 10553 10554 10555 10555 10556 10557 10557 10558 10560 10560 10561 10561 10561 10560 10560 10559 10558 10557 10556 10554 10553 10552 10550 10549 10547 10545 10543 10541 10539 10537 10534 10531 10529 10526 10522 10518 10514 10510 10506
10464 10467 10471 10474 10476 10479 10482 10485 10488 10490 10493 10495 10496 10498 10502 10505 10507 10507 10507 10509 10511 10512 10513 10516 10518 10520 10522 10524 10524 10524 10526 10528 10530 10532 10533 10534 10535 10537 10538 10539 10540 10541 10543 10544 10544 10545 10547 10548 10548 10549 10550 10551 10552 10552 10553 10554 10555 10555 10555 10554 10554 10553 10553 10552 10551 10550 10548 10547 10545 10544 10543 10541 10539 10537 10535 10533 10530 10527 10525 10522 10519 10515 10511 10507 10503 10499
10462 10465 10468 10471 10473 10476 10479 10481 10483 10486 10489 10490 10491 10494 10497 10499 10500 10501 10500 10502 10505 10506 10508 10511 10513 10515 10518 10519 10518 10520 10523 10525 10525 10526 10528 10529 10531 10533 10534 10535 10534 10536 10538 10539 10539 10540 10542 10542 10543 10544 10545 10545 10546 10546 10547 10548 10549 10550 10549 10548 10547 10547 10547 10546 10545 10544 10542 10541 10540 10538 10537 10535 10533 10531 10529 10527 10524 10521 10518 10515 10511 10508 10504 10500 10496 10492
10459 10462 10465 10467 10469 10472 10474 10477 10480 10482 10484 10486 10486 10488 10491 10493 10494 10494 10493 10495 10499 10502 10503 10505 10508 10511 10512 10512 10514 10517 10519 10518 10519 10521 10523 10524 10526 10528 10529 10529 10529 10530 10532 10533 10534 10535 10537 10537 10538 10539 10539 10540 10541 10541 10541 10542 10543 10544 10543 10542 10541 10541 10541 10540 10539 10537 10536 10535 10534 10532 10530 10528 10527 10525 10523 10520 10517 10514 10511 10508 10504 10501 10497 10493 10489 10485
10455 10457 10459 10461 10463 10466 10469 10472 10474 10476 10477 10479 10479 10480 10482 10485 10487 10487 10488 10490 10495 10497 10498 10500 10503 10505 10506 10507 10509 10512 10512 10511 10513 10516 10517 10519 10521 10522 10523 10523 10524 10526 10527 10528 10529 10530 10531 10532 10532 10533 10534 10535 10535 10535 10536 10537 10538 10538 10537 10536 10535 10536 10535 10534 10533 10531 10530 10529 10527 10525 10524 10522 10520 10518 10516 10514 10511 10508 10504 10501 10497 10494 10490 10486 10482 10478
10450 10452 10453 10456 10459 10462 10464 10466 10468 10470 10471 10472 10473 10473 10476 10479 10481 10483 10485 10487 10490 10492 10493 10495 10497 10499 10500 10501 10503 10504 10505 10506 10508 10510 10512 10513 10514 10515 10516 10517 10519 10520 10521 10523 10524 10525 10526 10526 10526 10527 10529 10530 10530 10530 10531 10531 10532 10532 10531 10530 10530 10530 10529 10528 10526 10525 10524 10522 10521 10519 10517 10515 10513 10512 10510 10507 10504 10501 10498 10494 10491 10487 10483 10479 10475 10471
10445 10447 10449 10452 10454 10455 10456 10459 10462 10464 10465 10467 10468 10468 10471 10474 10477 10479 10480 10482 10484 10486 10488 10490 10491 10492 10494 10495 10496 10497 10499 10500 10501 10504 10506 10506 10507 10508 10509 10511 10513 10514 10516 10517 10518 10519 10519 10520 10521 10522 10523 10523 10524 10524 10525 10525 10525 10525 10524 10523 10524 10524 10523 10521 10520 10518 10517 10516 10514 10512 10510 10509 10507 10505 10503 10501 10498 10494 10491 10488 10484 10480 10476 10473 10469 10465
10440 10442 10444 10445 10446 10448 10450 10453 10455 10457 10459 10461 10463 10463 10465 10468 10470 10472 10473 10475 10477 10479 10481 10483 10484 10485 10486 10488 10489 10491 10493 10493 10495 10497 10499 10499 10500 10501 10503 10505 10506 10508 10509 10510 10511 10512 10513 10514 10515 10516 10517 10517 10518 10518 10519 10519 10519 10518 10518 10518 10518 10517 10516 10515 10513 10512 10511 10509 10507 10506 10504 10502 10500 10498 10496 10494 10491 10488 10484 10481 10477 10474 10470 10466 10463 10459
10435 10437 10438 10439 10440 10443 10445 10447 10450 10452 10454 10456 10458 10459 10460 10461 10463 10464 10465 10467 10469 10471 10473 10475 10476 10477 10478 10479 10481 10484 10486 10486 10487 10490 10492 10493 10493 10494 10496 10498 10500 10501 10502 10503 10504 10505 10506 10507 10508 10509 10510 10511 10512 10512 10512 10512 10512 10512 10511 10511 10511 10511 10509 10508 10506 10505 10504 10502 10501 10499 10498 10496 10494 10492 10490 10487 10484 10481 10478 10474 10471 10467 10464 10460 10457 10453
10428 10430 10432 10433 10435 10438 10440 10443 10445 10446 10448 10450 10451 10452 10453 10453 10455 10457 10458 10459 10462 10465 10466 10468 10469 10469 10470 10470 10472 10476 10478 10478 10479 10482 10484 10486 10486 10487 10489 10491 10493 10494 10495 10496 10497 10498 10499 10500 10502 10503 10504 10505 10505 10505 10505 10506 10505 10505 10505 10505 10505 10504 10502 10501 10500 10499 10497 10496 10494 10493 10491 10489 10487 10485 10483 10481 10478 10474 10471 10468 10464 10461 10457 10454 10451 10448
10422 10425 10426 10427 10430 10432 10435 10437 10437 10438 10442 10443 10442 10442 10444 10445 10447 10449 10450 10452 10455 10458 10459 10459 10460 10462 10463 10463 10464 10467 10469 10471 10472 10474 10476 10478 10479 10480 10481 10484 10485 10486 10487 10489 10490 10491 10492 10493 10495 10496 10497 10497 10498 10498 10499 10499 10499 10499 10499 10498 10498 10497 10495 10494 10493 10492 10491 10489 10487 10486 10484 10482 10480 10478 10476 10474 10471 10468 10464 10461 10458 10454 10451 10448 10445 10442
10418 10419 10420 10422 10425 10427 10429 10429 10429 10433 10437 10435 10432 10433 10437 10438 10439 10441 10443 10445 10448 10450 10451 10451 10452 10455 10456 10456 10456 10458 10461 10463 10465 10466 10469 10471 10472 10473 10474 10476 10478 10478 10479 10481 10483 10484 10485 10486 10487 10488 10489 10490 10491 10491 10492 10492 10492 10492 10492 10491 10491 10490 10489 10488 10487 10485 10484 10482 10481 10479 10477 10475 10474 10472 10469 10467 10464 10461 10458 10454 10451 10448 10446 10442 10439 10436